Zurück zum Katalog

NOAA 16 DEB

AktivSSO
NORAD 41052·DEBRIS·🇺🇸 United States

Gestartet Sep 21, 2000 von Vandenberg Space Force Base

Loading…

Nächste Überflüge (nächste 24 Stunden)

TLE

AktuellSource: Space-Track

Epoche: Sep 14, 2026, 10:50 UTC

1 41052U 00055K   26257.45154762  .00000575  00000-0  31732-3 0  9994
2 41052  98.6042 264.7361 0161263 296.9271  61.5503 14.08837025554278

Verfolge NOAA 16 DEB in Echtzeit mit AllMySat

Download on the App Store